Погода в Луговом

Россия / Калининградская область     54°39′13″N   20°37′37″E
темп.,
°C
ветер,
м/с
пор.,
м/с
влажн.,
%
обл.,
%
осадки,
мм/ч
давл.,
гПа
погр.,
м
13 мая, чт
чт1323:00+13вюв410850 0.0 1010239
02:00+10вюв38900 0.0 1009148
05:00+9юв35893 0.0 100779
08:00+14вюв237445 0.0 1006250
11:00+17в4561100 0.0 1005915
14:00+17всв34644 0.0 1003980
17:00+15всв678284 1.0 1003799
20:00+11всв48880 1.2 1002257
14 мая, пт
пт1423:00+7всв22948 0.0 100242
02:00+7с229479 0.0 100151
05:00+8сз129695 0.1 100182
08:00+10з118973 0.1 1000422
11:00+11зюз3485100 0.3 1001599
14:00+13з447583 0.6 1002988
17:00+13зсз447546 0.1 1003856
20:00+10сз2393100 0.1 100442
15 мая, сб
сб1523:00+7зсз229670 0.0 100512
02:00+6з009567 0.0 100610
05:00+8ююв1191100 0.0 100628
08:00+10ююв2285100 0.0 1007153
11:00+13ююз127499 0.0 1008431
14:00+14зюз2279100 0.0 1008515
17:00+13сз1282100 0.0 1008354
20:00+10св239298 0.0 100846
16 мая, вс
вс1623:00+8вюв229436 0.0 100916
02:00+8юв229693 0.0 100924
05:00+8ююв2397100 0.0 100850
08:00+13юв458593 0.0 1008285
11:00+17юв586991 0.1 1007976
14:00+17юв6981100 1.5 10051073
17:00+13зюз4791100 2.0 1005457
20:00+12з249491 2.6 1006116
17 мая, пн
пн1723:00+10сз1194100 0.1 100613
02:00+9вюв1194100 0.1 100614
05:00+9ююз229678 0.0 100627
08:00+13ююз34825 0.0 1006347
11:00+17ю45645 0.4 10061269
14:00+17ю4664100 1.8 10061387
17:00+16ю4680100 3.1 1005612
20:00+13ююз3588100 5.4 100582